RH
82 51 34 60 81 87 82 76 61 76 90 89 86 87 88 80 76 74 84 94 92 87 97 95 99 98 100 84 98 88 99 99 80 66 53 96 81 86 87 97 87 90 86
80 51 41 68 88 85 82 82 69 69 82 99 96 86 74 81 76 77 81 89 97 92 98 98 98 98 100 97 98 99 97 87 98 87 94 92 86 92 93 93 87 86 87
81 56 48 72 87 80 83 85 81 76 70 78 78 77 79 80 81 84 81 81 81 81 83 86 84 97 100 96 80 63 66 87 76 70 72 95 98 97 97 98 90 87 85
81 61 46 47 73 84 77 80 83 80 77 76 80 79 77 82 86 85 85 81 80 82 78 68 83 98 100 98 86 60 55 59 97 82 62 78 86 90 98 98 99 99 92
80 71 51 53 77 84 84 81 81 80 78 77 82 80 80 81 85 89 81 81 85 89 71 38 100 99 99 100 93 76 64 42 62 99 90 65 76 93 97 99 98 98 97
86 85 57 60 66 80 86 78 78 78 80 83 83 81 82 84 91 91 92 94 88 81 70 45 93 85 100 99 98 80 73 60 73 100 90 86 86 66 82 99 99 100 99
90 89 74 68 69 88 85 87 82 80 80 82 82 82 87 90 89 89 94 94 85 71 62 52 99 98 78 90 99 93 82 76 63 60 63 44 86 98 79 100 89 96 98
93 91 83 73 74 88 89 87 84 84 84 83 80 84 86 89 90 90 90 84 67 52 38 52 92 99 98 96 99 100 94 85 86 46 45 36 40 36 56 55 56 71 76
92 93 86 70 86 83 82 80 78 85 85 85 83 82 87 84 89 91 88 73 58 58 54 61 82 83 92 95 89 75 79 96 90 59 56 56 52 50 47 43 37 33 37
92 98 91 84 80 84 81 79 78 83 83 85 86 82 73 68 86 90 88 70 53 55 57 68 86 73 72 62 64 57 61 86 93 98 85 96 93 64 54 50 46 44 42
92 96 93 86 81 84 78 78 79 78 79 82 88 76 66 63 74 90 96 84 68 47 50 67 73 68 68 59 56 55 53 60 93 75 87 93 91 88 57 58 53 53 54
100 95 93 84 81 86 80 77 74 76 73 78 81 73 60 59 68 54 78 82 64 50 55 64 68 66 63 60 59 54 52 53 53 72 64 76 83 89 74 59 55 55 57
100 98 98 91 82 86 78 77 72 77 70 67 64 67 63 58 49 46 34 63 80 73 84 75 71 70 62 58 56 51 50 51 50 50 53 55 56 57 57 58 60 62 64
100 98 97 87 86 86 77 78 75 73 76 69 61 62 62 64 61 58 33 29 86 96 89 74 74 68 61 55 53 52 51 50 51 49 50 51 53 54 59 62 65 65 65
100 100 98 91 90 87 80 78 80 76 68 69 62 57 60 66 65 67 55 33 27 84 90 80 71 64 58 55 55 53 51 52 52 52 52 50 51 53 56 61 65 65 66
88 100 95 96 93 87 80 80 83 78 70 73 71 64 64 62 52 75 71 65 38 30 57 58 64 54 52 57 58 56 53 57 53 53 53 54 55 52 53 53 57 62 64
91 100 100 99 96 85 86 82 80 80 78 75 77 74 67 64 57 66 82 70 68 44 45 55 65 59 54 53 61 61 59 57 54 54 53 53 53 53 55 56 55 56 57
87 86 99 99 98 87 81 86 82 85 83 79 74 78 71 66 61 58 81 79 75 69 71 69 63 67 60 53 58 60 58 56 58 53 54 52 52 54 51 50 52 53 53
85 92 91 100 92 95 86 90 86 86 87 82 79 75 81 73 69 62 72 82 82 86 81 74 67 66 64 64 70 69 62 56 59 63 65 62 60 58 55 54 54 57 57
99 100 96 99 100 97 86 92 92 92 88 86 82 76 83 84 72 66 61 75 84 88 85 83 74 67 68 68 72 64 64 61 61 66 67 66 66 64 61 60 61 62 62
98 95 80 100 100 100 99 99 98 98 91 89 84 83 84 86 77 66 62 57 77 82 83 84 80 75 73 76 70 64 60 52 59 65 64 64 65 63 63 63 62 62 63
100 97 79 97 100 100 99 99 98 98 88 88 89 90 89 88 81 69 66 56 48 78 81 83 83 78 70 67 63 60 56 63 69 64 66 67 68 62 64 69 67 67 66
100 98 90 93 100 100 100 100 100 95 91 91 91 84 82 78 78 72 75 70 65 51 68 74 78 74 69 64 63 61 59 57 57 59 60 60 63 62 65 64 66 74 73
100 100 96 93 90 100 96 99 100 100 93 89 81 77 65 64 71 74 76 83 81 76 67 57 74 76 66 63 62 58 59 61 68 70 71 73 71 74 74 76 68 61 65
100 100 100 98 96 98 100 98 100 100 100 95 89 85 79 76 73 71 75 82 86 84 79 72 56 54 74 74 73 72 73 75 76 73 76 78 78 74 69 71 74 68 58
100 100 100 100 99 99 93 99 98 100 100 100 100 96 90 85 80 83 85 77 83 86 87 86 87 83 74 68 71 77 80 78 75 75 71 81 80 80 79 69 71 70 68
Wind_Speed
41 36 39 40 37 36 32 31 32 34 30 27 22 17 17 15 14 13 16 17 17 15 14 15 16 16 17 21 20 17 19 18 16 12 16 19 21 16 13 14 14 14 17
43 40 41 41 38 37 35 33 31 30 27 27 23 19 15 15 12 12 14 16 17 15 14 13 14 13 18 13 17 17 15 14 18 15 20 18 18 14 11 11 10 17 17
45 43 42 41 39 37 35 35 31 28 27 24 21 20 16 17 16 15 14 16 14 8 6 7 5 12 19 13 10 12 12 12 11 10 17 19 18 15 13 13 13 18 19
47 44 43 41 41 38 35 35 35 32 30 27 25 23 21 17 19 17 15 16 12 8 5 6 8 15 19 14 8 9 8 11 15 14 13 15 16 14 15 17 18 19 18
47 44 43 40 40 40 39 39 36 35 35 31 28 24 22 20 19 18 16 15 15 14 7 5 12 13 20 18 6 9 12 13 12 14 14 13 13 14 16 18 17 19 19
47 47 43 40 41 39 39 40 38 37 35 35 32 25 21 21 20 19 17 15 16 14 10 9 13 13 16 19 10 9 11 11 14 13 11 13 12 12 14 17 17 17 17
51 49 45 42 43 42 44 40 40 39 35 37 34 26 20 18 21 21 22 18 13 14 14 16 16 14 12 20 14 6 8 11 11 9 9 11 15 15 15 15 13 13 16
54 51 47 44 44 45 45 46 44 42 39 40 41 31 22 18 17 19 19 16 14 15 18 17 17 17 15 16 14 12 8 7 8 12 14 15 13 13 14 15 14 14 14
57 55 51 47 43 44 45 45 47 47 45 42 41 29 20 13 24 19 18 17 18 19 18 19 15 15 15 14 14 12 12 9 5 11 14 15 15 14 14 14 14 14 14
59 58 53 50 42 42 45 46 45 47 47 47 43 33 20 22 19 20 20 19 20 20 20 19 18 16 15 12 12 11 12 13 7 9 10 9 10 11 12 13 13 14 15
61 59 55 51 46 44 45 45 45 48 48 48 47 34 27 17 26 24 29 27 21 21 21 20 18 16 15 13 12 12 12 14 13 9 12 8 11 8 10 10 11 12 12
64 60 59 54 47 43 46 46 44 46 47 45 45 35 32 30 32 25 27 34 30 26 23 22 21 18 15 14 13 13 13 13 12 11 10 11 11 9 7 8 9 10 10
59 65 62 56 50 44 45 46 44 46 45 44 41 41 30 25 27 25 24 36 31 27 23 22 21 19 17 16 15 14 14 13 12 11 11 10 9 9 8 8 8 8 7
54 64 62 55 53 45 44 47 46 45 44 41 38 41 32 27 25 23 26 37 32 26 27 26 26 23 20 18 16 15 15 14 13 12 11 11 10 10 10 9 8 8 7
22 57 60 55 54 45 44 48 48 46 43 40 37 38 35 31 28 22 21 31 38 27 34 31 26 26 22 20 19 17 16 15 14 13 12 11 11 11 11 10 9 8 7
27 52 59 59 55 51 47 49 49 46 42 40 38 36 35 34 29 28 24 23 32 29 32 32 29 25 24 22 20 18 17 16 15 14 13 13 12 12 11 11 11 10 9
44 21 61 60 59 54 50 49 50 47 44 40 39 36 35 34 34 33 29 26 26 32 23 29 26 19 24 23 22 21 20 18 16 15 13 12 12 12 12 12 12 11 11
35 38 31 66 59 56 52 51 51 49 47 44 40 38 36 36 35 33 33 29 27 29 24 25 26 26 22 23 21 23 22 20 18 16 14 13 12 11 10 11 11 11 11
29 39 31 47 61 59 54 52 51 50 50 46 42 40 39 38 38 36 33 34 31 30 27 21 26 25 23 23 25 24 23 21 20 17 15 14 13 11 10 9 9 9 9
17 13 39 40 62 58 55 53 53 51 51 49 44 40 40 40 40 38 38 37 34 33 32 27 25 26 24 24 26 27 28 26 23 21 19 16 14 13 12 12 11 11 10
16 17 13 38 60 55 58 55 53 52 51 51 48 44 42 41 40 39 39 39 38 36 34 34 30 29 29 30 33 32 29 25 26 24 21 21 19 17 16 15 14 14 13
14 18 13 13 47 51 45 49 52 52 49 50 51 48 45 42 41 39 37 36 41 40 40 37 37 35 33 32 30 32 30 31 31 28 26 25 22 21 19 19 17 16 16
8 15 22 19 16 45 47 48 51 48 49 49 48 45 44 42 40 39 37 35 35 40 39 41 40 40 37 34 31 30 32 30 30 25 25 24 23 24 20 18 19 20 21
10 12 15 14 19 24 37 48 48 47 46 47 46 43 41 42 42 41 39 40 39 36 37 42 39 37 34 33 31 29 27 27 28 27 27 28 22 25 18 18 19 21 23
11 13 14 17 13 13 35 41 47 47 47 48 48 46 42 41 40 41 42 41 41 39 36 34 37 39 36 34 32 32 34 34 33 33 32 30 29 26 24 24 22 21 21
11 14 16 16 18 19 27 33 39 49 46 46 47 47 45 45 42 40 41 41 44 42 39 38 38 38 38 38 38 37 35 38 38 37 36 35 34 31 30 30 27 25 24
Wind_Direction
184 181 173 172 170 165 162 160 165 166 162 171 163 166 142 136 122 117 111 107 105 92 97 111 105 112 103 99 95 102 101 91 86 93 111 110 108 105 101 90 83 81 78
189 181 175 175 173 167 170 167 168 172 166 154 157 151 163 145 131 136 126 129 125 109 108 101 106 110 114 107 116 110 104 103 104 92 97 114 121 105 94 85 88 83 74
193 184 180 179 176 173 176 173 170 175 180 171 168 168 171 162 153 147 150 144 145 157 186 180 176 125 111 114 101 119 112 105 103 105 105 104 111 107 101 87 79 84 76
195 188 184 183 179 175 179 178 168 176 176 176 177 178 169 169 169 162 160 161 166 185 202 170 136 130 122 116 126 95 100 121 98 91 115 115 102 114 110 82 80 76 77
195 191 188 185 181 181 180 170 171 177 172 175 174 177 180 177 179 178 184 187 198 215 241 180 135 137 133 131 134 99 100 106 125 96 93 110 119 99 104 104 98 94 81
198 194 190 188 182 182 187 178 180 181 173 167 163 166 170 172 173 174 181 191 200 217 226 172 148 130 145 140 134 116 98 105 112 119 116 107 94 114 98 111 110 105 99
198 196 193 186 185 184 181 180 182 183 180 177 165 165 171 177 195 201 204 211 217 219 198 175 150 146 135 138 140 141 111 106 100 120 124 124 108 100 99 105 109 96 106
199 197 195 190 189 187 185 187 188 183 185 183 174 165 164 175 194 200 207 214 202 174 169 163 156 157 151 145 144 150 126 107 98 111 111 110 121 106 104 100 104 96 98
199 200 196 197 194 193 195 194 194 191 184 186 182 170 157 187 176 193 205 202 196 180 177 165 159 165 169 164 162 153 150 147 128 121 119 112 107 104 102 100 97 95 94
199 199 197 197 196 200 195 194 195 195 191 187 187 185 177 182 171 176 196 195 195 189 186 180 177 175 175 174 171 168 163 157 171 136 141 128 118 111 109 103 101 98 97
198 201 199 199 197 201 199 196 195 196 197 193 197 195 199 195 186 175 177 187 190 190 188 189 186 184 183 179 178 175 169 171 180 165 133 134 136 128 125 115 112 107 101
190 199 201 199 199 202 200 198 199 198 198 203 199 195 198 192 192 191 185 187 184 183 186 189 193 196 192 188 186 184 179 176 179 170 156 152 155 151 145 131 128 122 114
188 197 198 198 200 205 201 201 200 201 203 205 206 199 203 208 201 205 201 185 182 182 187 196 196 197 198 194 192 191 188 184 182 179 175 169 168 170 164 156 148 141 133
189 196 198 199 202 204 203 202 202 204 206 209 210 203 201 201 201 207 201 190 179 184 195 197 196 198 200 197 195 194 194 191 190 188 187 181 178 177 175 175 171 163 156
179 193 198 202 204 203 206 203 203 205 207 207 208 207 205 200 205 209 210 203 192 180 199 201 201 199 197 197 196 199 197 196 195 195 195 192 191 191 194 191 192 191 191
255 200 207 204 204 205 205 204 205 207 206 207 207 208 208 207 204 206 209 208 209 204 195 200 201 202 197 197 198 200 199 200 200 200 200 201 201 202 206 207 209 214 218
227 236 203 204 204 207 206 206 207 208 207 207 207 208 210 208 208 202 208 209 207 210 212 202 207 202 205 200 198 199 201 203 201 202 202 204 205 208 212 217 220 224 232
246 251 222 205 207 208 210 207 208 209 207 206 206 206 209 205 206 203 204 209 205 206 208 208 198 201 202 204 203 203 202 203 206 205 203 204 207 210 212 218 225 232 238
232 245 241 198 209 209 210 211 212 211 211 210 209 208 210 206 207 207 205 209 206 205 205 205 204 200 203 202 202 206 207 206 208 207 207 210 212 214 216 219 221 231 242
201 245 215 210 208 210 210 213 213 214 214 212 214 212 214 213 211 209 209 208 207 208 209 210 212 205 203 203 207 206 205 207 211 212 214 218 221 223 227 231 235 240 246
202 240 282 202 208 209 207 209 214 214 214 214 215 218 220 221 221 217 214 210 209 207 208 212 209 207 207 206 207 207 212 212 216 218 222 225 225 231 234 238 241 245 250
195 231 235 276 195 208 217 211 216 215 215 215 216 219 223 222 222 221 223 221 215 210 210 210 213 213 215 216 213 212 211 215 219 221 225 228 231 240 242 245 251 251 250
188 206 223 270 194 184 196 205 214 218 217 216 218 218 220 220 219 220 222 225 224 222 220 218 219 220 221 220 219 217 219 221 227 227 230 236 235 243 245 248 248 249 250
141 150 191 242 263 208 200 201 204 215 221 218 218 220 219 218 217 218 219 221 223 224 224 226 229 231 232 232 231 231 229 230 232 234 236 240 238 246 249 253 251 252 252
115 129 159 183 218 220 202 212 202 205 217 222 220 221 222 223 221 219 219 220 222 224 225 228 229 232 234 238 238 235 232 232 234 237 237 242 245 247 250 256 258 257 257
80 113 127 145 154 193 217 224 228 207 207 215 224 227 227 228 227 224 224 224 226 226 224 225 225 227 230 235 238 238 239 236 235 239 238 240 245 247 249 253 257 259 260